Showing default

EOSSAT-1, 55053

Orbit data source: Space-Track

EOSSAT-1, 55053 is a payload satellite owned by EOS DA (ZA) in SSO that was launched on Tue, 03 Jan 2023 UTC via an FALCON 9 launch vehicle from the Air Force Eastern Test Range (AFETR). Payload-class satellites include a variety of spacecraft equipped with specific instruments for various scientific and technological missions. These include communications satellites like Starlink; space stations such as the ISS; scientific satellites like the Hubble; Earth observation satellites from companies like Planet Labs, Umbra, and HawkEye 360; GPS; miniature CubeSats for education and research; and military/defense satellites.

Loading next visibility...
Identifier
55053, 2023-001AW
Orbit
SSO
Country
Flag of UnknownUnknown / SAFR
Related business
Manufacturer
Dragonfly
Mission
Operational Commercial Imaging
Bus & Motor
EOS-SAT, AOCS
Mass
178 kg wet, 178 kg dry
Launch date (UTC)
2023-01-03 (3 years ago)
Launch vehicle
FALCON 9
Launch site
Air Force Eastern Test Range (AFETR)
Object type
Payload
Rocket body
Debris
Shape & HBR
Cyl + 2 Pan, 0.3 m
Radar Cross Section
0.295 m², Medium (>0.1 m² and < 1m²)

Expand to show TLE details & history
Last TLE update: 12 hours ago

TLE from 12 hours ago
0 EOSSAT-1
1 55053U 23001AW  25340.63011179  .00013416  00000-0  45513-3 0  9992
2 55053  97.3530  37.9701 0011558  86.2894 273.9668 15.30580320162435
Epoch: 2025-12-06T15:07Z
TLE epoch observation values (Epoch: 2025-12-06T15:07:21.658Z)
Latitude
-0.00008°
Longitude
95.47477°
Altitude
476.647 km
Speed
7.628 km/s
True Right ascension
02h 31m 52s
True Declination
0° 00' 00"
Sunlit
Object was in full shadow at epoch
Visualization orbit readout
Latitude
Unknown
Longitude
Unknown
Altitude
Unknown
Speed
Unknown
Apparent Right ascension
Unknown
Apparent Declination
Unknown
Sunlit
N/A
Visualization observer readout
Local Sidereal Time
01:18:20
Azimuth
Unknown
Elevation
Unknown
Doppler factor
Unknown
Orbital elements
Apogee altitude
478.945 km
Perigee altitude
463.113 km
Semi-major axis
6,849.166 km
Eccentricity
0.00116
Inclination
97.353°
RAAN
37.9701°
Arg. of periapsis
86.2894°
True anomaly
273.83466°
Mean anomaly
273.9668°
Eccentric anomaly
273.90073°
Mean motion
3.82901 °/min
Orbital period
94.02 mins
BSTAR
0.00045513
Loading maneuver chart data...
Computing Atmospheric mass density...

Documentation

Showing up to 5 results
|